CW8496 Weather Reports


time (UTC)temp
C
wind
direction
speed
KPH
gust
KPH
rain 1hr
cm
rain 24hr
cm
rain mn
cm
humidity
%
barometer
mb
20260504050018 13 0 1.6 14.5 0.00 2.26 2.26 96 1024.0
20260504043038 12 315 3.2 12.9 0.00 2.26 2.26 96 1023.9
20260504040018 12 0 3.2 14.5 0.00 2.26 2.26 96 1024.1
20260504033017 12 0 4.8 24.1 0.00 2.26 2.26 96 1024.2
20260504030017 12 0 6.4 20.9 0.00 2.26 2.26 96 1024.5
20260504023020 12 0 4.8 22.5 0.00 2.26 2.26 96 1024.8
20260504020017 12 0 6.4 22.5 0.03 2.26 2.26 96 1025.4
20260504013017 12 0 4.8 20.9 0.08 2.26 2.26 96 1025.4
20260504010016 12 0 6.4 20.9 0.10 2.24 2.24 95 1026.1
20260504003016 12 0 8.0 19.3 0.15 2.18 2.18 96 1026.5
20260504000017 12 0 6.4 19.3 0.20 2.13 2.13 96 1026.8
20260503233018 12 0 6.4 24.1 0.25 2.03 2.03 95 1026.9
20260503230018 12 0 4.8 22.5 0.28 1.93 1.93 95 1027.1
20260503223016 11 0 6.4 22.5 0.25 1.78 1.78 95 1026.6
20260503220017 11 0 4.8 16.1 0.25 1.65 1.65 95 1026.3
20260503213017 11 0 1.6 14.5 0.30 1.52 1.52 95 1026.0
20260503210017 12 0 1.6 9.7 0.38 1.40 1.40 95 1026.1
20260503203016 12 23 3.2 12.9 0.38 1.22 1.22 95 1026.0
20260503200017 12 45 1.6 8.0 0.33 1.02 1.02 95 1026.1
20260503193020 12 0.0 11.3 0.25 0.84 0.84 95 1026.1
20260503190018 12 0.0 0.0 0.20 0.69 0.69 95 1025.8
20260503183019 12 0.0 0.0 0.20 0.58 0.58 95 1026.2
20260503180018 12 0.0 4.8 0.23 0.48 0.48 94 1026.5
20260503173018 12 0.0 4.8 0.25 0.38 0.38 94 1026.8